RH
65 61 58 57 59 69 72 73 66 68 69 62 64 64 64 67 67 68 80 75 72 66
68 68 64 64 66 64 62 61 66 65 63 61 59 58 58 54 61 69 76 77 75 69
67 65 60 60 64 64 65 62 61 64 63 62 62 60 58 53 57 63 66 67 70 71
64 64 62 59 57 57 61 62 60 62 61 59 58 58 57 56 56 59 61 64 66 69
62 60 61 60 57 56 55 56 55 53 54 52 51 53 54 56 52 56 59 60 64 74
57 59 60 60 59 56 55 53 52 49 51 50 52 52 53 54 55 57 58 59 62 75
56 56 57 57 58 59 56 56 54 52 51 53 50 49 50 50 55 57 57 61 65 77
52 53 54 57 58 58 59 56 54 56 56 55 54 50 55 52 55 57 60 67 72 81
47 49 54 57 59 60 60 58 58 58 58 61 53 68 78 71 60 61 63 72 77 77
45 47 52 54 55 57 62 63 64 62 60 61 61 80 83 85 65 68 76 86 82 91
45 46 47 51 53 57 60 65 66 65 64 63 59 82 90 99 71 69 71 74 85 96
42 44 47 50 55 57 58 62 64 62 65 68 64 99 100 99 94 98 99 99 99 98
40 42 46 51 56 58 60 62 67 86 96 100 98 100 100 100 99 99 98 98 98 97
39 44 45 49 53 58 74 92 97 98 98 97 98 98 98 97 98 98 98 97 97 98
Wind_Speed
20 13 14 17 12 11 11 12 13 13 11 14 14 13 13 9 12 10 7 10 11 9
19 17 14 16 14 12 14 12 16 17 17 17 17 18 15 12 12 10 9 10 14 12
18 18 18 17 19 17 15 17 16 17 18 18 18 17 18 15 14 13 12 11 14 14
18 19 18 17 18 18 17 18 19 20 20 21 21 19 18 18 17 17 17 16 15 15
19 19 20 20 18 18 19 19 20 20 21 21 22 21 21 20 17 19 19 17 16 15
18 19 20 19 19 18 18 18 19 20 20 20 20 20 20 20 20 19 19 18 17 15
20 21 19 18 19 19 19 19 20 21 20 20 20 20 20 19 20 19 18 19 18 16
19 19 19 19 19 19 20 19 19 20 20 21 20 17 21 20 21 21 19 17 16 16
18 19 19 19 19 18 20 21 21 22 21 21 16 17 18 19 17 19 18 17 17 16
19 20 20 18 19 21 21 18 20 20 19 21 20 18 18 19 17 15 12 10 12 13
19 20 19 19 20 20 18 19 18 19 19 18 17 14 16 16 15 16 18 18 15 12
18 19 18 20 20 18 17 16 16 15 16 16 16 9 13 12 9 2 5 5 5 6
15 17 17 16 16 14 13 13 9 5 6 11 4 6 3 8 6 7 6 7 8 11
10 14 14 13 12 12 7 8 8 9 8 8 8 8 9 8 7 8 7 7 8 7
Wind_Direction
202 202 198 206 196 196 191 194 191 192 196 205 215 214 213 207 219 216 226 238 244 242
202 204 199 200 203 199 201 195 195 197 206 209 217 223 230 236 223 222 216 232 242 245
206 207 204 201 201 202 201 204 204 206 211 214 219 227 234 236 234 232 231 227 235 240
205 205 208 213 211 206 200 199 202 202 207 210 215 220 226 230 233 235 235 233 236 243
202 211 209 212 214 212 209 206 207 209 208 213 215 218 223 230 231 232 237 238 238 230
205 208 211 214 214 213 216 217 218 218 223 225 224 227 229 231 233 235 238 240 239 225
207 209 210 211 213 214 218 218 222 220 225 226 230 233 235 235 235 238 239 241 238 229
207 211 213 213 211 214 214 218 221 224 225 228 228 230 232 235 237 240 240 239 236 233
213 210 214 212 211 213 217 216 216 219 221 224 228 227 218 232 237 233 232 230 229 231
213 214 212 212 213 215 216 216 222 225 225 228 228 216 208 209 228 237 239 223 228 235
217 216 210 211 217 218 214 216 218 221 223 226 229 209 205 206 225 235 236 244 241 221
217 217 214 211 213 214 215 216 217 219 223 228 234 184 189 188 211 126 56 42 57 110
226 226 225 223 216 211 211 216 209 135 59 35 23 7 243 151 123 111 99 76 74 90
242 228 228 225 221 212 157 102 78 75 56 65 75 58 77 104 108 117 103 93 85 83